Wind_Speed
9 10 11 13 16 20 22 22 23 22 23 24 18 21 28 31 32 35 36 37 38 40 42 42 42 43 40 39 38 35 34 35 34 33 33 32 32 34 36 39 42 44 47
4 6 9 12 14 16 21 19 21 30 28 23 19 25 29 32 34 37 37 39 38 37 37 39 38 41 36 36 36 34 33 32 34 31 32 34 36 39 40 41 44 46 49
4 7 8 8 9 16 22 12 22 24 29 28 28 31 33 31 36 37 33 32 33 33 34 34 30 29 30 31 32 32 32 32 32 33 34 37 39 41 43 44 46 49 50
3 4 5 6 3 11 14 11 12 12 15 19 17 20 22 25 26 24 23 23 25 23 25 27 28 30 31 32 33 32 32 33 34 35 38 38 39 40 41 45 48 50 51
3 5 6 7 9 8 8 11 14 20 21 22 22 21 22 23 24 24 26 27 27 26 28 30 31 31 31 32 31 31 32 33 36 38 39 39 39 40 42 45 48 50 50
2 2 2 2 2 4 10 12 12 12 13 15 16 19 21 23 23 23 25 25 27 28 28 29 30 30 30 30 30 32 33 34 36 37 38 38 40 41 43 45 47 47 49
2 3 4 5 7 9 11 13 14 15 16 18 20 22 24 26 29 28 29 31 31 29 28 28 29 29 29 29 31 32 33 33 35 36 36 38 40 43 44 46 47 47 48
5 5 7 8 9 10 11 12 12 13 15 17 19 20 22 24 25 26 27 28 29 28 28 28 28 29 29 30 32 32 32 33 34 36 37 39 40 42 44 45 46 47 48
8 9 9 10 11 12 13 13 14 15 17 19 20 22 23 24 25 26 28 28 28 28 28 28 29 30 30 31 32 32 32 34 35 36 37 38 40 41 42 44 46 47 49
11 11 12 12 13 14 15 16 17 18 19 20 22 24 25 26 26 26 26 28 29 29 30 30 30 30 30 31 32 33 34 34 35 36 37 38 40 42 44 46 47 48 49
13 14 14 14 15 15 16 17 18 20 21 21 22 24 25 27 28 28 27 27 27 28 29 30 31 31 31 30 31 32 34 33 35 36 37 39 41 43 45 46 48 49 48
15 16 16 16 16 17 18 19 20 21 22 23 24 24 25 26 27 29 29 28 28 28 28 28 29 29 30 30 31 31 33 34 34 36 38 41 43 44 45 47 48 48 44
16 17 17 17 19 20 22 23 23 23 24 25 24 24 25 26 28 29 30 30 30 29 28 28 28 28 28 29 31 32 33 34 35 37 40 43 44 45 46 47 47 45 41
17 18 19 20 21 21 24 26 26 26 26 26 25 25 26 27 28 30 31 31 31 30 29 28 28 29 29 30 31 32 33 34 37 40 42 44 44 45 47 47 45 40 35
18 20 21 21 22 24 26 27 27 27 27 28 28 26 26 28 29 30 31 32 32 31 30 28 28 29 29 30 32 32 34 38 40 42 42 42 44 46 46 45 40 33 29
19 20 21 21 23 26 28 28 28 29 30 30 30 28 28 29 30 30 30 32 33 31 29 30 29 29 29 30 31 33 37 39 41 42 41 43 45 45 44 41 32 27 26
21 20 22 25 25 25 28 28 28 30 31 34 33 30 29 29 30 30 30 31 31 31 30 29 30 30 31 31 32 35 37 40 41 41 43 44 45 43 38 30 24 23 24
23 24 25 26 27 29 31 32 32 32 32 34 36 32 30 30 30 31 31 31 31 31 31 27 29 30 31 32 34 36 37 39 40 42 44 45 42 35 27 20 20 21 21
31 30 29 29 30 30 33 34 34 34 33 34 36 33 32 32 31 31 31 30 31 31 28 26 28 30 30 32 35 36 38 39 40 43 44 41 33 23 19 19 20 20 19
35 36 35 34 33 33 33 33 33 33 32 34 35 35 34 33 32 32 32 31 30 30 26 26 29 29 31 34 34 36 37 38 41 43 40 31 22 20 21 19 18 15 16
35 37 38 39 39 38 37 36 36 35 33 33 34 35 34 33 31 31 32 31 30 26 24 27 28 30 33 33 33 35 36 38 41 40 30 22 22 21 18 13 11 13 16
36 39 40 42 43 41 39 38 37 35 34 34 36 35 33 30 30 31 30 29 25 23 25 26 29 31 31 31 32 33 35 39 39 32 23 22 20 15 10 9 13 14 15
37 40 41 44 43 42 39 36 35 34 34 34 35 33 31 30 30 28 27 21 21 24 26 28 29 29 29 30 31 32 35 37 34 24 21 20 17 11 9 13 14 14 16
38 40 43 45 47 45 40 34 33 34 31 30 31 29 29 28 28 24 19 20 22 25 28 28 28 27 27 28 29 31 34 34 29 21 20 18 15 11 12 14 15 16 17
41 42 45 47 46 42 35 30 30 28 26 26 24 24 25 27 20 18 19 22 25 26 26 26 25 25 26 27 27 31 32 31 25 20 20 17 15 13 14 15 16 18 19
41 44 46 48 41 29 25 26 20 18 19 18 21 22 18 17 18 19 21 23 24 23 23 22 23 24 25 24 26 29 29 27 22 19 19 17 15 15 16 17 18 19 20
Wind_Direction
209 222 225 219 215 206 205 204 195 198 204 214 218 228 227 230 243 241 245 246 253 258 264 271 271 272 273 275 279 278 280 283 281 281 282 283 285 288 292 291 291 290 291
173 214 210 216 223 222 214 194 195 210 223 226 220 224 231 236 241 241 245 252 257 264 267 271 276 277 276 278 280 284 282 282 283 285 285 287 291 292 292 291 291 291 294
187 237 231 240 224 217 212 194 217 232 235 234 232 228 233 238 242 246 253 260 264 270 272 273 275 281 287 286 284 281 281 280 279 284 289 290 290 291 292 293 296 298 298
188 139 201 237 223 322 295 288 293 276 279 263 266 262 260 256 259 271 275 279 279 274 277 277 276 276 277 279 279 281 284 287 290 289 287 289 291 292 294 296 298 299 301
161 192 204 238 244 273 285 298 309 300 299 295 292 285 283 282 279 279 280 284 282 282 283 282 280 280 278 278 281 284 284 285 286 288 290 290 291 293 297 299 301 302 302
106 114 152 185 228 265 274 268 268 268 272 270 271 273 274 275 275 274 276 278 277 277 277 279 280 280 282 282 282 281 282 283 285 286 288 292 294 298 300 303 304 304 302
257 259 258 262 262 263 262 259 260 261 265 267 267 267 271 273 273 277 279 280 282 284 283 284 283 281 280 280 281 282 283 285 286 288 291 295 296 299 302 303 305 305 305
261 256 256 252 249 252 253 256 262 268 271 274 275 279 278 276 280 283 284 284 286 285 284 283 283 282 282 282 281 282 286 287 290 292 294 296 297 299 302 304 304 303 303
254 259 261 266 271 271 271 272 274 279 284 287 284 280 279 282 284 285 287 289 288 286 286 286 286 285 284 283 284 286 287 289 290 291 293 295 298 301 302 303 304 305 306
257 260 265 266 267 270 274 276 277 277 277 278 281 283 285 286 288 288 289 288 287 286 283 282 282 283 284 286 288 288 287 288 290 292 294 296 299 302 304 305 306 305 303
265 266 269 272 275 280 285 287 288 286 283 283 283 284 283 282 283 284 287 289 288 286 286 287 287 287 287 287 287 286 288 291 293 295 297 299 301 303 304 305 304 303 302
273 272 275 279 284 290 295 296 296 295 293 287 281 280 282 281 282 283 283 285 289 292 291 289 290 290 291 291 290 291 291 293 295 297 299 300 302 304 303 303 303 302 299
283 279 276 279 282 288 295 299 302 302 300 296 292 290 289 289 288 289 291 290 289 293 293 292 291 290 290 291 291 293 295 296 297 298 300 302 303 303 302 302 302 301 297
282 282 283 285 285 289 293 299 304 306 304 300 294 293 291 290 290 290 291 292 290 292 294 294 293 294 295 296 297 297 298 299 300 301 302 303 303 302 303 303 303 298 292
290 282 284 291 288 289 295 301 304 308 308 304 301 301 298 296 294 293 292 291 289 288 290 292 292 293 295 298 298 300 302 302 302 301 303 303 302 304 305 304 299 292 288
301 293 285 285 285 284 291 299 304 305 308 307 305 304 301 297 296 296 295 292 291 284 286 289 290 290 292 295 297 300 303 302 303 304 303 303 305 306 305 302 296 291 289
312 301 291 287 287 289 291 298 301 304 307 308 308 306 302 300 299 297 297 294 292 293 282 284 289 290 291 293 297 302 304 306 306 305 305 307 309 307 304 300 294 292 295
308 307 302 298 299 298 296 297 298 298 302 306 309 308 302 298 298 300 298 295 293 296 292 285 287 289 290 294 299 303 307 308 306 307 309 310 310 307 302 299 296 295 297
308 305 303 303 301 302 300 298 298 298 299 300 304 308 299 297 299 301 299 296 295 295 289 289 290 289 292 296 301 306 309 307 309 311 312 312 309 304 303 301 301 300 301
307 304 304 304 303 302 300 302 299 297 295 294 299 305 302 298 299 301 300 296 295 295 289 291 292 293 295 300 305 309 309 310 312 314 315 313 308 308 306 302 300 300 307
303 302 302 300 301 299 300 302 301 296 294 290 291 298 299 296 296 298 299 295 297 291 288 292 293 293 299 304 308 309 311 313 315 317 316 313 313 313 308 301 299 307 314
301 299 297 296 298 299 297 297 295 291 292 286 285 291 296 292 293 297 297 296 290 287 292 294 294 300 304 307 310 311 314 316 318 320 317 316 315 310 302 300 307 311 313
299 298 299 298 298 297 295 293 291 287 285 283 281 290 293 290 292 294 294 286 287 292 293 295 301 304 306 310 311 315 316 319 323 319 317 315 311 294 287 301 309 309 309
296 296 295 294 295 294 291 287 284 283 279 277 278 291 289 290 292 288 281 289 293 295 298 303 304 305 310 311 315 316 320 324 324 315 317 313 306 285 289 304 309 307 306
297 301 300 299 297 292 288 278 281 281 272 274 285 287 284 289 279 281 290 294 296 301 304 304 304 309 312 315 317 321 325 326 324 316 315 310 300 286 289 302 305 306 308
302 302 304 302 296 284 276 277 273 274 279 282 285 282 280 278 284 291 294 298 303 304 306 306 309 312 315 316 323 328 329 329 327 320 314 308 300 289 286 296 300 301 306
Height
5733 5735 5736 5738 5741 5744 5747 5749 5755 5756 5758 5761 5762 5765 5767 5768 5770 5771 5773 5773 5774 5773 5774 5772 5772 5771 5767 5765 5764 5762 5761 5761 5759 5758 5757 5756 5754 5752 5750 5747 5745 5741 5738
5734 5737 5738 5738 5738 5741 5745 5749 5751 5752 5755 5756 5758 5760 5761 5763 5764 5764 5765 5765 5764 5764 5764 5764 5762 5762 5758 5757 5756 5756 5754 5753 5753 5750 5749 5748 5746 5744 5740 5737 5735 5730 5727
5734 5737 5737 5737 5740 5743 5747 5746 5747 5750 5752 5753 5754 5755 5756 5756 5756 5756 5756 5754 5755 5754 5755 5754 5752 5754 5754 5753 5751 5749 5748 5746 5743 5741 5739 5738 5737 5734 5730 5727 5723 5719 5714
5737 5738 5739 5742 5741 5741 5744 5746 5747 5745 5747 5750 5749 5750 5749 5750 5749 5748 5748 5747 5748 5748 5748 5747 5745 5745 5744 5744 5743 5742 5740 5738 5735 5734 5732 5729 5726 5723 5718 5714 5710 5707 5701
5738 5739 5740 5740 5738 5740 5742 5742 5742 5743 5744 5744 5746 5747 5747 5746 5745 5744 5743 5742 5741 5740 5740 5740 5739 5737 5734 5733 5732 5731 5729 5727 5726 5725 5722 5718 5714 5711 5707 5703 5698 5692 5687
5735 5735 5736 5737 5738 5739 5742 5742 5741 5741 5742 5742 5743 5743 5744 5744 5742 5739 5738 5736 5735 5733 5731 5730 5729 5729 5727 5726 5723 5722 5720 5718 5716 5714 5711 5708 5705 5700 5697 5692 5685 5678 5673
5732 5733 5734 5734 5736 5737 5738 5739 5739 5740 5740 5739 5739 5738 5736 5735 5737 5733 5730 5729 5728 5725 5724 5721 5720 5719 5719 5716 5715 5713 5711 5708 5706 5703 5701 5697 5693 5690 5685 5679 5672 5665 5660
5734 5734 5735 5735 5736 5736 5736 5736 5735 5735 5735 5735 5733 5730 5730 5730 5727 5725 5722 5721 5718 5716 5715 5713 5712 5710 5709 5707 5706 5704 5701 5698 5696 5693 5689 5686 5683 5678 5672 5665 5659 5653 5648
5733 5733 5733 5733 5733 5733 5732 5732 5731 5730 5728 5727 5726 5726 5725 5722 5720 5718 5716 5713 5710 5708 5706 5705 5703 5702 5701 5699 5696 5694 5691 5688 5686 5683 5679 5676 5672 5666 5659 5653 5648 5641 5633
5730 5730 5730 5730 5730 5729 5728 5727 5726 5725 5725 5724 5722 5720 5717 5715 5713 5710 5708 5706 5703 5701 5700 5699 5697 5695 5693 5689 5687 5685 5682 5679 5676 5672 5668 5664 5659 5654 5647 5641 5634 5628 5623
5726 5726 5726 5726 5725 5724 5723 5723 5722 5721 5719 5717 5715 5712 5710 5708 5706 5704 5702 5699 5697 5694 5692 5690 5687 5685 5683 5681 5678 5675 5671 5668 5664 5661 5657 5651 5646 5641 5635 5629 5623 5617 5611
5722 5721 5721 5721 5720 5719 5717 5716 5715 5713 5712 5710 5708 5706 5704 5702 5699 5697 5694 5691 5688 5685 5683 5681 5678 5676 5673 5671 5669 5666 5662 5658 5654 5650 5645 5640 5634 5628 5623 5618 5612 5605 5599
5718 5717 5716 5715 5715 5713 5712 5710 5708 5705 5703 5701 5699 5697 5695 5692 5690 5687 5684 5682 5679 5677 5674 5672 5670 5668 5665 5662 5659 5656 5652 5648 5644 5639 5633 5628 5623 5618 5612 5606 5600 5593 5587
5712 5711 5710 5709 5708 5707 5705 5703 5701 5698 5696 5694 5691 5689 5686 5683 5680 5677 5675 5672 5670 5668 5666 5664 5661 5659 5656 5653 5650 5646 5643 5639 5634 5628 5623 5618 5612 5607 5600 5593 5586 5581 5576
5705 5705 5704 5704 5703 5701 5699 5697 5694 5691 5689 5685 5682 5680 5677 5674 5672 5669 5666 5664 5662 5660 5658 5655 5653 5650 5647 5644 5641 5638 5633 5629 5624 5619 5614 5608 5602 5595 5587 5580 5575 5571 5568
5698 5697 5696 5695 5694 5693 5691 5690 5688 5684 5680 5677 5675 5672 5669 5666 5664 5661 5659 5656 5654 5651 5649 5647 5644 5642 5639 5636 5633 5629 5625 5620 5614 5609 5603 5597 5590 5582 5575 5569 5565 5562 5560
5694 5691 5690 5689 5687 5685 5683 5682 5679 5676 5673 5670 5668 5665 5662 5659 5656 5653 5650 5647 5645 5643 5640 5638 5636 5633 5631 5627 5624 5619 5614 5609 5604 5598 5591 5585 5578 5570 5564 5559 5556 5554 5552
5687 5686 5684 5682 5681 5679 5676 5674 5671 5668 5665 5663 5660 5658 5654 5651 5648 5645 5641 5638 5636 5633 5631 5629 5628 5625 5622 5618 5614 5609 5604 5599 5593 5587 5580 5573 5566 5559 5554 5552 5550 5548 5546
5681 5679 5676 5675 5673 5671 5669 5666 5663 5660 5657 5654 5651 5648 5645 5642 5640 5636 5633 5630 5628 5625 5622 5621 5619 5616 5613 5609 5604 5599 5595 5589 5583 5576 5569 5562 5556 5551 5548 5546 5543 5541 5539
5672 5670 5667 5666 5664 5662 5659 5657 5654 5651 5648 5644 5642 5640 5636 5633 5630 5627 5624 5622 5619 5616 5614 5612 5610 5607 5603 5599 5595 5591 5585 5579 5573 5566 5559 5552 5548 5545 5542 5539 5537 5536 5534
5664 5662 5659 5655 5654 5652 5649 5647 5644 5641 5638 5635 5632 5629 5626 5623 5621 5618 5615 5613 5611 5608 5606 5604 5601 5598 5594 5590 5586 5581 5576 5570 5563 5555 5549 5545 5542 5538 5535 5534 5532 5531 5529
5655 5652 5649 5646 5644 5641 5638 5635 5632 5629 5627 5624 5621 5619 5616 5613 5611 5608 5606 5604 5602 5600 5598 5596 5593 5589 5586 5582 5577 5572 5567 5560 5553 5547 5542 5539 5536 5533 5531 5530 5528 5527 5524
5645 5643 5639 5634 5632 5629 5626 5623 5621 5618 5616 5613 5610 5609 5606 5604 5602 5599 5597 5595 5594 5592 5590 5587 5585 5581 5578 5573 5569 5564 5559 5552 5545 5540 5537 5533 5531 5529 5527 5526 5524 5522 5520
5635 5631 5627 5622 5619 5616 5613 5611 5608 5606 5604 5602 5601 5599 5598 5595 5593 5591 5589 5588 5586 5584 5582 5580 5577 5574 5570 5566 5561 5557 5551 5544 5539 5535 5531 5528 5526 5524 5523 5521 5520 5518 5516
5625 5621 5616 5610 5606 5602 5601 5598 5596 5595 5594 5593 5592 5591 5589 5587 5585 5584 5582 5581 5579 5577 5575 5572 5570 5566 5563 5559 5555 5550 5543 5538 5533 5529 5526 5523 5521 5519 5518 5516 5515 5513 5511
5615 5609 5603 5597 5592 5590 5589 5588 5587 5587 5587 5585 5585 5584 5582 5581 5579 5578 5576 5575 5573 5571 5568 5566 5563 5560 5556 5553 5549 5543 5538 5532 5528 5524 5521 5518 5515 5514 5513 5511 5510 5508 5505